G4RHR Weather Reports


Display with metric or nautical units.
time (UTC)temp
F
wind
direction
speed
MPH
gust
MPH
rain 1hr
in
rain 24hr
in
rain mn
in
humidity
%
barometer
mb
20260901195038 65 196 1.0 3.0 0.00 0.00 0.00 74 1017.8
20260901194026 65 196 1.0 3.0 0.00 0.00 0.00 73 1017.7
20260901193053 66 196 2.0 4.0 0.00 0.00 0.00 71 1017.6
20260901192031 66 196 2.0 5.0 0.00 0.00 0.00 70 1017.6
20260901191040 66 196 3.0 7.0 0.00 0.00 0.00 70 1017.8
20260901190115 67 196 4.0 6.0 0.00 0.00 0.00 69 1017.9
20260901185032 67 200 1.0 4.0 0.00 0.00 0.00 69 1017.7
20260901184026 67 198 3.0 5.0 0.00 0.00 0.00 68 1017.7
20260901183039 68 196 2.0 4.0 0.00 0.00 0.00 67 1017.6
20260901182048 68 196 2.0 6.0 0.00 0.00 0.00 66 1017.4
20260901181040 69 196 5.0 7.0 0.00 0.00 0.00 66 1017.4
20260901180031 69 204 2.0 7.0 0.00 0.00 0.00 65 1017.5
20260901175043 70 205 1.0 8.0 0.00 0.00 0.00 63 1017.4
20260901174035 71 360 1.0 6.0 0.00 0.00 0.00 50 1017.3
20260901173045 72 360 2.0 8.0 0.00 0.00 0.00 47 1017.4
20260901172035 72 253 1.0 9.0 0.00 0.00 0.00 47 1017.3
20260901171028 72 216 2.0 8.0 0.00 0.00 0.00 48 1017.4
20260901170041 72 247 2.0 8.0 0.00 0.00 0.00 47 1017.4
20260901165031 72 256 3.0 11.0 0.00 0.00 0.00 46 1017.3
20260901164041 73 262 2.0 9.0 0.00 0.00 0.00 46 1017.5
20260901163028 73 266 4.0 10.0 0.00 0.00 0.00 46 1017.6
20260901162038 72 267 5.0 8.0 0.00 0.00 0.00 47 1017.6
20260901161046 73 272 5.0 13.0 0.00 0.00 0.00 46 1017.8
20260901160034 73 261 8.0 13.0 0.00 0.00 0.00 46 1017.9
20260901143108 74 217 6.0 17.0 0.00 0.00 0.00 43 1017.8
20260901142051 74 213 8.0 14.0 0.00 0.00 0.00 44 1018.0
20260901141043 74 196 7.0 12.0 0.00 0.00 0.00 53 1018.1
20260901140034 73 190 8.0 15.0 0.00 0.00 0.00 52 1018.0
20260901135042 73 163 10.0 16.0 0.00 0.00 0.00 53 1018.0
20260901134035 74 200 7.0 13.0 0.00 0.00 0.00 45 1018.0
20260901133025 73 207 6.0 14.0 0.00 0.00 0.00 46 1018.1
20260901132039 73 216 8.0 12.0 0.00 0.00 0.00 47 1018.0
20260901131033 73 258 4.0 15.0 0.00 0.00 0.00 47 1018.2
20260901125033 72 266 7.0 10.0 0.00 0.00 0.00 48 1018.4
20260901124028 72 261 3.0 10.0 0.00 0.00 0.00 48 1018.4
20260901123032 72 210 8.0 11.0 0.00 0.00 0.00 49 1018.5
20260901122103 71 217 2.0 10.0 0.00 0.00 0.00 49 1018.6
20260901121032 72 259 4.0 12.0 0.00 0.00 0.00 50 1018.6
20260901120044 71 255 3.0 7.0 0.00 0.00 0.00 50 1018.6
20260901115052 70 201 3.0 11.0 0.00 0.00 0.00 52 1018.6
20260901114041 71 212 4.0 15.0 0.00 0.00 0.00 50 1018.7
20260901113051 71 206 3.0 10.0 0.00 0.00 0.00 50 1018.6
20260901112039 70 210 3.0 10.0 0.00 0.00 0.00 52 1018.7
20260901111030 70 212 2.0 11.0 0.00 0.00 0.00 54 1018.7
20260901110040 70 217 3.0 12.0 0.00 0.00 0.00 54 1018.8
20260901105031 69 255 3.0 12.0 0.00 0.00 0.00 56 1018.9
20260901104027 68 360 5.0 13.0 0.00 0.00 0.00 55 1018.9
20260901103038 68 360 4.0 11.0 0.00 0.00 0.00 56 1018.9
20260901102025 69 277 8.0 13.0 0.00 0.00 0.00 55 1019.0
20260901101034 69 263 5.0 12.0 0.00 0.00 0.00 54 1019.1
20260901100046 69 269 5.0 11.0 0.00 0.00 0.00 55 1019.2
20260901095034 69 265 8.0 13.0 0.00 0.00 0.00 57 1019.2
20260901094106 68 268 6.0 13.0 0.00 0.00 0.00 57 1019.2
20260901093053 68 302 5.0 13.0 0.00 0.00 0.00 58 1019.1
20260901092042 67 265 6.0 13.0 0.00 0.00 0.00 59 1019.2
20260901091032 68 218 6.0 11.0 0.00 0.00 0.00 58 1019.2
20260901090044 67 271 4.0 8.0 0.00 0.00 0.00 60 1019.1
20260901085031 67 269 6.0 11.0 0.00 0.00 0.00 60 1019.2
20260901084044 66 272 6.0 10.0 0.00 0.00 0.00 63 1019.0